QPF
0.01 0.01 0.05 0.01 0.00 0.00 0.00 0.00 0.00 0.00 0.00 0.00 0.00 0.00 0.00 0.00 0.00 0.00 0.00 0.00 0.00 0.00 0.00 0.00 0.00 0.00 0.00 0.00 0.00 0.00 0.00 0.00 0.00
0.04 0.05 0.04 0.00 0.00 0.00 0.00 0.00 0.00 0.00 0.00 0.00 0.00 0.00 0.00 0.00 0.00 0.00 0.00 0.00 0.00 0.00 0.00 0.00 0.00 0.00 0.00 0.00 0.00 0.00 0.00 0.00 0.00
0.06 0.07 0.02 0.00 0.00 0.00 0.00 0.00 0.00 0.00 0.00 0.00 0.00 0.00 0.00 0.00 0.00 0.00 0.00 0.00 0.00 0.00 0.00 0.00 0.00 0.00 0.00 0.00 0.00 0.00 0.00 0.00 0.00
0.06 0.06 0.01 0.00 0.00 0.00 0.00 0.00 0.00 0.00 0.00 0.00 0.00 0.00 0.00 0.00 0.00 0.00 0.00 0.00 0.00 0.00 0.00 0.00 0.00 0.00 0.00 0.00 0.00 0.00 0.00 0.00 0.00
0.04 0.02 0.00 0.00 0.01 0.01 0.00 0.00 0.00 0.00 0.00 0.00 0.00 0.00 0.00 0.00 0.00 0.00 0.00 0.00 0.00 0.00 0.00 0.00 0.00 0.00 0.00 0.00 0.00 0.00 0.00 0.00 0.00
0.00 0.00 0.00 0.00 0.00 0.01 0.00 0.00 0.00 0.00 0.00 0.00 0.00 0.00 0.00 0.00 0.00 0.00 0.00 0.00 0.00 0.00 0.00 0.00 0.00 0.00 0.00 0.00 0.00 0.00 0.00 0.00 0.00
0.00 0.00 0.00 0.00 0.00 0.01 0.00 0.00 0.00 0.00 0.00 0.00 0.00 0.00 0.00 0.00 0.00 0.00 0.00 0.00 0.00 0.00 0.00 0.00 0.00 0.00 0.00 0.00 0.00 0.00 0.00 0.00 0.00
0.00 0.00 0.00 0.00 0.01 0.01 0.00 0.00 0.00 0.00 0.00 0.00 0.00 0.00 0.00 0.00 0.00 0.00 0.00 0.00 0.00 0.00 0.00 0.00 0.00 0.00 0.00 0.00 0.00 0.00 0.00 0.00 0.00
0.02 0.01 0.00 0.00 0.00 0.00 0.00 0.00 0.00 0.00 0.00 0.00 0.00 0.00 0.00 0.00 0.00 0.00 0.00 0.00 0.00 0.00 0.00 0.00 0.00 0.00 0.00 0.00 0.00 0.00 0.00 0.00 0.00
0.03 0.02 0.00 0.00 0.00 0.00 0.00 0.00 0.00 0.00 0.00 0.00 0.00 0.00 0.00 0.00 0.00 0.00 0.00 0.00 0.00 0.00 0.00 0.00 0.00 0.00 0.00 0.00 0.00 0.00 0.00 0.00 0.00
0.02 0.04 0.02 0.00 0.00 0.00 0.00 0.00 0.00 0.00 0.00 0.00 0.00 0.00 0.00 0.00 0.00 0.00 0.00 0.00 0.00 0.00 0.00 0.00 0.00 0.00 0.00 0.00 0.00 0.00 0.01 0.01 0.00
0.00 0.01 0.02 0.01 0.00 0.00 0.00 0.00 0.00 0.00 0.00 0.00 0.00 0.00 0.00 0.00 0.00 0.00 0.00 0.00 0.00 0.00 0.00 0.00 0.00 0.00 0.00 0.00 0.00 0.01 0.02 0.01 0.01
0.00 0.00 0.01 0.01 0.01 0.00 0.00 0.00 0.00 0.00 0.00 0.00 0.00 0.00 0.00 0.00 0.00 0.00 0.00 0.00 0.00 0.00 0.00 0.00 0.00 0.00 0.00 0.00 0.00 0.00 0.00 0.00 0.01
0.00 0.00 0.01 0.00 0.00 0.00 0.00 0.00 0.00 0.00 0.00 0.00 0.00 0.00 0.00 0.00 0.00 0.00 0.00 0.00 0.00 0.00 0.00 0.00 0.00 0.00 0.00 0.00 0.00 0.00 0.00 0.01 0.01
0.01 0.00 0.00 0.02 0.00 0.00 0.00 0.00 0.00 0.00 0.00 0.00 0.00 0.00 0.00 0.00 0.00 0.00 0.00 0.00 0.00 0.00 0.00 0.00 0.00 0.00 0.00 0.00 0.00 0.00 0.00 0.00 0.01
0.00 0.01 0.02 0.01 0.01 0.00 0.00 0.00 0.00 0.00 0.00 0.00 0.00 0.00 0.00 0.00 0.00 0.00 0.00 0.00 0.00 0.00 0.00 0.00 0.00 0.00 0.00 0.00 0.00 0.00 0.00 0.00 0.00
0.03 0.02 0.01 0.02 0.02 0.01 0.00 0.00 0.00 0.00 0.00 0.00 0.00 0.00 0.00 0.00 0.00 0.00 0.00 0.00 0.00 0.00 0.00 0.00 0.00 0.00 0.00 0.00 0.00 0.00 0.00 0.00 0.00
0.02 0.04 0.03 0.01 0.01 0.00 0.01 0.00 0.00 0.00 0.00 0.00 0.00 0.00 0.00 0.00 0.00 0.00 0.00 0.00 0.00 0.00 0.00 0.00 0.00 0.00 0.00 0.00 0.00 0.00 0.00 0.00 0.01
0.06 0.04 0.03 0.03 0.01 0.00 0.01 0.01 0.00 0.00 0.00 0.00 0.00 0.00 0.00 0.00 0.00 0.00 0.00 0.00 0.00 0.00 0.00 0.00 0.00 0.00 0.00 0.00 0.00 0.00 0.00 0.00 0.01
0.02 0.07 0.08 0.07 0.05 0.03 0.04 0.06 0.04 0.04 0.04 0.04 0.03 0.01 0.02 0.03 0.03 0.03 0.03 0.02 0.02 0.01 0.01 0.00 0.00 0.00 0.00 0.00 0.00 0.00 0.00 0.00 0.00
MSLP
1014.38 1014.67 1015.07 1015.26 1015.44 1015.73 1015.98 1016.38 1016.77 1016.98 1017.02 1017.15 1017.39 1017.55 1017.79 1017.98 1018.10 1018.14 1018.08 1018.07 1017.95 1018.00 1018.05 1018.09 1018.12 1018.09 1018.08 1018.05 1018.07 1018.04 1018.01 1017.95 1017.95
1014.41 1014.84 1015.25 1015.55 1015.71 1015.89 1016.20 1016.59 1016.84 1017.13 1017.24 1017.31 1017.54 1017.84 1018.03 1018.29 1018.37 1018.33 1018.29 1018.23 1018.16 1018.23 1018.28 1018.26 1018.24 1018.29 1018.28 1018.26 1018.24 1018.26 1018.22 1018.16 1018.12
1014.43 1014.94 1015.28 1015.68 1015.93 1016.11 1016.36 1016.71 1016.94 1017.13 1017.36 1017.48 1017.55 1017.84 1018.15 1018.35 1018.52 1018.56 1018.48 1018.24 1018.30 1018.46 1018.53 1018.53 1018.52 1018.54 1018.52 1018.54 1018.48 1018.42 1018.37 1018.36 1018.38
1014.48 1014.87 1015.19 1015.56 1016.05 1016.40 1016.60 1016.80 1016.99 1017.14 1017.38 1017.65 1017.69 1017.87 1018.11 1018.42 1018.57 1018.58 1018.60 1018.41 1018.41 1018.61 1018.75 1018.76 1018.72 1018.73 1018.71 1018.68 1018.65 1018.60 1018.64 1018.62 1018.61
1014.60 1014.91 1015.21 1015.50 1015.80 1016.36 1016.74 1016.93 1017.10 1017.23 1017.45 1017.74 1017.93 1018.00 1018.17 1018.44 1018.60 1018.63 1018.73 1018.57 1018.62 1018.68 1018.79 1018.88 1018.89 1018.88 1018.84 1018.81 1018.84 1018.79 1018.78 1018.91 1018.89
1014.54 1014.88 1015.15 1015.25 1015.72 1016.12 1016.63 1016.96 1017.15 1017.35 1017.50 1017.71 1018.01 1018.19 1018.37 1018.48 1018.56 1018.64 1018.53 1018.44 1018.56 1018.79 1018.83 1018.89 1018.96 1019.02 1019.05 1018.99 1018.93 1018.96 1018.96 1019.00 1019.04
1014.24 1014.72 1014.99 1015.30 1015.77 1016.06 1016.48 1016.86 1017.19 1017.47 1017.75 1017.89 1017.96 1018.28 1018.42 1018.50 1018.56 1018.57 1018.47 1018.37 1018.43 1018.61 1018.91 1018.97 1019.01 1019.06 1019.16 1019.21 1019.17 1019.17 1019.13 1019.11 1019.09
1014.39 1014.62 1014.95 1015.47 1015.88 1016.19 1016.46 1016.88 1017.24 1017.59 1017.84 1018.09 1018.21 1018.27 1018.36 1018.43 1018.50 1018.48 1018.44 1018.40 1018.33 1018.51 1018.66 1018.90 1019.06 1019.10 1019.11 1019.22 1019.23 1019.26 1019.27 1019.17 1019.22
1014.65 1014.70 1014.90 1015.33 1015.91 1016.25 1016.50 1016.96 1017.35 1017.56 1017.69 1017.87 1018.09 1018.23 1018.25 1018.27 1018.22 1018.31 1018.28 1018.20 1018.14 1018.19 1018.34 1018.68 1018.83 1018.96 1018.98 1019.00 1019.15 1019.21 1019.21 1019.24 1019.18
1014.96 1015.11 1015.16 1015.32 1015.74 1016.18 1016.60 1017.08 1017.38 1017.53 1017.64 1017.73 1017.82 1017.92 1018.00 1017.99 1018.04 1018.06 1018.00 1017.99 1017.96 1017.91 1018.07 1018.20 1018.49 1018.57 1018.70 1018.76 1018.80 1018.92 1018.97 1019.03 1019.12
1014.28 1015.15 1015.38 1015.32 1015.50 1016.02 1016.63 1017.16 1017.42 1017.53 1017.52 1017.54 1017.61 1017.60 1017.68 1017.74 1017.74 1017.77 1017.71 1017.77 1017.87 1017.81 1017.87 1017.84 1017.97 1018.24 1018.22 1018.29 1018.35 1018.40 1018.50 1018.55 1018.64
1014.09 1014.30 1015.38 1015.34 1015.70 1015.85 1016.40 1017.11 1017.43 1017.62 1017.45 1017.40 1017.32 1017.35 1017.32 1017.43 1017.46 1017.51 1017.62 1017.47 1017.64 1017.66 1017.47 1017.71 1017.63 1017.95 1018.04 1017.94 1017.94 1017.94 1018.07 1018.15 1018.26
1013.78 1013.99 1014.40 1014.87 1015.44 1015.81 1016.08 1016.84 1017.30 1017.40 1017.31 1017.09 1016.98 1017.03 1016.97 1017.02 1017.08 1017.06 1017.21 1017.28 1017.31 1017.44 1017.42 1017.46 1017.38 1017.66 1017.81 1017.77 1017.73 1017.74 1017.70 1017.80 1017.83
1012.85 1013.88 1013.62 1013.95 1015.17 1015.23 1015.91 1016.57 1016.76 1017.15 1017.02 1016.87 1016.72 1016.72 1016.81 1016.76 1016.59 1016.71 1016.76 1016.88 1017.07 1017.19 1017.10 1017.17 1017.10 1017.44 1017.59 1017.59 1017.56 1017.48 1017.53 1017.56 1017.62
1013.37 1013.25 1013.22 1013.02 1014.72 1015.42 1015.59 1016.10 1016.15 1016.50 1016.49 1016.58 1016.39 1016.36 1016.33 1016.27 1016.36 1016.35 1016.19 1016.38 1016.58 1016.87 1016.90 1016.97 1017.01 1016.96 1017.33 1017.57 1017.56 1017.43 1017.27 1017.35 1017.45
1012.94 1013.19 1013.49 1013.03 1013.65 1014.28 1014.85 1015.30 1015.59 1016.12 1015.92 1016.59 1016.40 1016.19 1016.09 1015.97 1015.84 1015.77 1015.88 1015.98 1016.04 1016.17 1016.45 1016.68 1017.21 1016.90 1017.01 1017.34 1017.42 1017.27 1017.02 1016.92 1017.04
1012.46 1012.46 1012.94 1012.79 1013.38 1013.79 1013.69 1014.29 1015.14 1015.21 1015.51 1015.96 1016.23 1016.34 1016.10 1015.62 1015.43 1015.53 1015.60 1015.76 1015.83 1016.08 1016.22 1016.45 1016.93 1017.10 1017.13 1017.22 1017.24 1017.12 1016.81 1016.82 1017.07
1011.95 1012.17 1012.44 1012.57 1012.63 1012.71 1012.99 1013.54 1013.70 1014.19 1014.68 1014.74 1015.37 1015.99 1015.73 1015.41 1015.25 1015.35 1015.59 1015.64 1015.66 1015.88 1016.17 1016.18 1016.66 1016.84 1016.97 1017.02 1017.12 1017.10 1016.90 1016.67 1016.91
1011.16 1011.49 1011.96 1011.98 1011.82 1012.12 1012.29 1012.65 1012.91 1013.46 1014.15 1014.64 1014.62 1014.68 1014.65 1015.03 1015.41 1015.42 1015.54 1015.57 1015.80 1015.86 1016.07 1016.41 1016.87 1016.77 1016.57 1016.73 1017.05 1017.06 1016.89 1016.85 1016.93
1010.30 1010.86 1010.95 1011.45 1011.30 1011.62 1011.85 1012.28 1012.77 1013.00 1013.45 1013.49 1014.25 1014.60 1014.68 1014.65 1014.88 1015.41 1015.34 1016.04 1015.65 1015.77 1015.62 1015.78 1016.24 1016.25 1016.76 1016.60 1016.86 1017.03 1016.94 1016.91 1016.97
Thickness
5737 5736 5734 5733 5734 5732 5731 5729 5726 5725 5724 5723 5721 5720 5719 5719 5718 5717 5716 5716 5715 5715 5713 5712 5711 5710 5710 5709 5707 5706 5705 5705 5703
5732 5730 5728 5728 5728 5728 5726 5724 5723 5722 5721 5720 5719 5716 5715 5715 5714 5714 5713 5713 5712 5711 5710 5710 5709 5707 5706 5706 5705 5704 5702 5701 5699
5728 5725 5724 5723 5722 5723 5722 5721 5720 5719 5718 5717 5717 5715 5713 5711 5710 5710 5710 5710 5709 5707 5706 5706 5706 5704 5703 5702 5702 5701 5699 5697 5695
5723 5721 5721 5720 5718 5716 5716 5716 5716 5716 5715 5713 5714 5713 5712 5710 5708 5707 5706 5706 5705 5704 5702 5702 5702 5701 5700 5700 5699 5698 5696 5694 5691
5716 5716 5715 5715 5715 5712 5711 5711 5711 5711 5711 5709 5708 5709 5708 5707 5705 5704 5703 5702 5701 5700 5699 5698 5697 5697 5697 5696 5695 5694 5692 5689 5687
5711 5712 5711 5711 5710 5708 5707 5706 5706 5706 5706 5705 5703 5703 5704 5703 5702 5701 5701 5701 5699 5696 5696 5695 5694 5693 5692 5692 5691 5690 5689 5687 5684
5705 5706 5707 5706 5703 5703 5702 5702 5701 5700 5700 5700 5700 5698 5699 5699 5698 5699 5698 5698 5697 5696 5691 5691 5691 5690 5688 5686 5686 5685 5685 5683 5681
5699 5699 5700 5698 5697 5697 5696 5695 5695 5695 5695 5694 5694 5695 5695 5695 5695 5694 5695 5694 5694 5692 5691 5688 5686 5685 5684 5682 5681 5680 5679 5679 5677
5688 5692 5693 5692 5691 5690 5690 5689 5688 5689 5690 5690 5689 5689 5690 5691 5692 5691 5691 5692 5691 5691 5690 5686 5684 5681 5681 5681 5678 5676 5676 5673 5672
5677 5680 5684 5685 5684 5683 5682 5681 5681 5682 5683 5685 5685 5685 5686 5687 5688 5689 5688 5688 5688 5689 5687 5686 5683 5681 5679 5678 5676 5674 5672 5671 5668
5674 5671 5674 5679 5678 5676 5673 5672 5674 5675 5677 5679 5680 5682 5682 5682 5684 5685 5686 5685 5684 5685 5683 5684 5682 5679 5679 5677 5675 5674 5671 5669 5667
5665 5670 5666 5672 5668 5669 5667 5664 5665 5668 5671 5673 5675 5676 5678 5679 5679 5681 5681 5683 5680 5681 5682 5680 5680 5676 5674 5675 5673 5672 5669 5667 5664
5660 5663 5666 5665 5662 5657 5661 5659 5658 5660 5663 5668 5670 5673 5674 5675 5675 5676 5676 5677 5677 5676 5677 5676 5676 5672 5670 5669 5668 5666 5666 5663 5661
5662 5656 5661 5664 5658 5657 5653 5653 5655 5653 5657 5661 5664 5667 5668 5670 5671 5672 5672 5673 5671 5672 5673 5671 5672 5668 5666 5664 5663 5662 5660 5658 5657
5647 5653 5654 5662 5650 5649 5650 5648 5649 5649 5653 5655 5660 5661 5663 5665 5665 5666 5668 5669 5669 5666 5665 5667 5666 5666 5662 5659 5657 5656 5656 5653 5651
5641 5642 5643 5648 5647 5645 5646 5644 5644 5642 5644 5644 5650 5654 5655 5658 5660 5662 5664 5665 5664 5663 5661 5659 5657 5659 5656 5653 5651 5650 5650 5650 5648
5635 5639 5640 5641 5641 5639 5644 5642 5638 5641 5641 5640 5638 5637 5644 5651 5654 5655 5656 5657 5656 5654 5653 5652 5648 5649 5648 5646 5644 5644 5645 5644 5641
5629 5632 5636 5638 5639 5639 5639 5638 5639 5638 5634 5637 5632 5624 5631 5638 5643 5644 5644 5646 5646 5644 5642 5645 5641 5640 5638 5637 5636 5636 5637 5638 5635
5629 5630 5631 5634 5635 5634 5634 5634 5635 5630 5626 5624 5630 5632 5634 5629 5627 5632 5632 5633 5637 5633 5633 5632 5628 5630 5631 5629 5628 5627 5628 5627 5625
5627 5626 5630 5627 5630 5630 5629 5626 5623 5623 5621 5625 5620 5618 5620 5625 5624 5621 5624 5619 5623 5623 5627 5625 5623 5624 5621 5622 5620 5619 5619 5618 5616